Regional Weather Roundup
Issued by NWS

Home | Current Version | Previous Version | Text Only | Print | Product List | Glossary On
Versions: 1 2 3 4 5 6 7 8 9 10 11 12 13 14 15 16 17 18 19 20 21 22 23 24 25 26 27 28 29 30 31 32 33 34 35 36 37 38 39 40 41 42 43 44 45 46 47 48 49 50
000
ASUS44 KFWD 210903
RWRTX
NORTH TEXAS HOURLY WEATHER ROUNDUP
NATIONAL WEATHER SERVICE FORT WORTH TX
400 AM CDT SAT OCT 21 2017

NOTE: "FAIR" INDICATES FEW OR NO CLOUDS BELOW 12,000 FEET WITH NO
SIGNIFICANT WEATHER AND/OR OBSTRUCTIONS TO VISIBILITY.

TXZ118-119-211000-
DALLAS/FORT WORTH METROPLEX

CITY           SKY/WX    TMP DP  RH WIND       PRES   REMARKS
DFW AIRPORT    CLOUDY    74  68  81 S12       29.89S
DALLAS LOVE    CLOUDY    73  68  84 S14       29.90F
FTW MEACHAM    CLOUDY    74  69  85 SE10      29.89F
DAL-EXECUTIVE  CLOUDY    72  69  90 SE8       29.91F
FTW-ALLIANCE   CLOUDY    72  68  87 S12       29.88F
FTW-NAS-JRB    CLOUDY    74  67  78 S12       29.89F
FTW-SPINKS     CLOUDY    72  67  84 SE12      29.91F
ARLINGTON      CLOUDY    71  69  93 SE9       29.90F
GRAND PRAIRIE  MOCLDY    72  67  84 SE7       29.92F
ADDISON        CLOUDY    71  67  87 SE10      29.93S
MESQUITE       CLOUDY    70  67  91 SE10      29.93S
LANCASTER      CLOUDY    71  67  88 SE7       29.93S
$$

TXZ091>094-102>105-117-120-121-131>134-211000-
NORTH CENTRAL TEXAS

CITY           SKY/WX    TMP DP  RH WIND       PRES   REMARKS
SHRMAN/DENISON CLOUDY    70  66  86 SE12      29.92F
GAINESVILLE    CLOUDY    70  66  86 SE14G20   29.90F
BOWIE          CLOUDY    70  67  88 SE13G22   29.85F
BRIDGEPORT     MOCLDY    71  66  84 SE9       29.88F
DECATUR        CLOUDY    71  66  86 SE13G20   29.87F
DENTON         CLOUDY    72  68  87 SE14      29.88F
MCKINNEY       LGT RAIN  70  69  97 S9        29.92F
BONHAM         CLOUDY    67  63  86 SE9       29.93F
ROCKWALL       DRIZZLE   70  69  96 S7        29.93S
TERRELL        CLOUDY    72  66  81 SE8       29.93F
WAXAHACHIE     CLOUDY    70  70  99 SE6       29.93F
CLEBURNE       CLOUDY    72  72 100 S9        29.92F
GRANBURY       CLOUDY    73  67  82 SE9       29.89F
$$

TXZ083>090-098>101-113>116-127>130-139>142-154-155-211000-
WESTERN NORTH TEXAS

CITY           SKY/WX    TMP DP  RH WIND       PRES   REMARKS
WICHITA FALLS  CLEAR     66  64  93 S9        29.82F
WF-KICKAPOO    CLEAR     67  65  91 SE7       29.85F
VERNON         CLEAR     69  60  74 S15       29.78F
ABILENE        CLEAR     68  63  84 S21G32    29.83F
ABILENE-DYESS  CLEAR     69  63  82 S25G33    29.82F
BRECKENRIDGE   CLEAR     70  65  84 S13G21    29.84F
CISCO          MOCLDY    68  64  88 S15G21    29.88F
EASTLAND       MOCLDY    67  65  93 S13G18    29.87F
RANGER         CLOUDY    68  67  96 S14G22    29.88F
MINERAL WELLS  CLOUDY    71  67  87 SE14      29.85F
STEPHENVILLE   PTCLDY    70  66  88 S10       29.92F
COMANCHE       CLOUDY    69  69 100 S7        29.91F
BROWNWOOD      CLOUDY    70  66  88 SE9       29.90F
COLEMAN        PTCLDY    68  63  83 S10       29.89F
$$

TXZ143>147-156>162-174-175-211000-
CENTRAL TEXAS

CITY           SKY/WX    TMP DP  RH WIND       PRES   REMARKS
WACO           CLOUDY    74  69  85 S12       29.91S
WACO-MCGREGOR  CLOUDY    73  68  84 S12       29.91F
HILLSBORO      MOCLDY    72  69  91 SE12      29.91F
CORSICANA      CLOUDY    72  69  90 SE8       29.93F
MEXIA          CLOUDY    71  68  90 SE5       29.92S
HEARNE         CLOUDY    72  72 100 CALM      29.92F
CAMERON        CLOUDY    73  69  87 S5        29.91S
TEMPLE         MOCLDY    72  69  90 S10       29.91F
KILLEEN        MOCLDY    70  68  94 SE8       29.90F
KILLEEN-SKYLRK CLOUDY    71  68  90 S8        29.91F
FORT HOOD      CLOUDY    69  67  92 S8        29.87F
GATESVILLE     PTCLDY    72  68  88 SE7       29.92F
HAMILTON       CLOUDY    71  69  93 S10G16    29.92F
LAMPASAS       MOCLDY    71  69  94 SE3       29.90F
$$

TXZ095>097-106>112-122>126-135>138-148>153-164>167-211000-
EAST TEXAS

CITY           SKY/WX    TMP DP  RH WIND       PRES   REMARKS
PARIS          CLOUDY    68  64  87 SE9       29.95F
SULPHUR SPRNGS CLOUDY    70  64  83 S7        29.97S
MOUNT PLEASANT MOCLDY    66  64  90 CALM      29.97S
GILMER         CLOUDY    68  64  87 CALM      29.95F THUNDER
MINEOLA        CLOUDY    70  64  83 CALM      29.94F
TYLER          CLOUDY    69  66  90 S9        29.94F
LONGVIEW       CLOUDY    70  68  93 SE7       29.95S
MARSHALL       CLOUDY    70  66  88 SE3       29.98S
ATHENS         CLOUDY    68  68 100 CALM      29.93F
PALESTINE      CLOUDY    71  69  93 SE5       29.95S
JACKSONVILLE   CLOUDY    69  67  94 S7        29.97S
HENDERSON      CLOUDY    69  66  88 SE8       29.96S
CENTER         CLOUDY    73  71  95 SE6       29.97F
NACOGDOCHES    CLOUDY    69  67  93 SE7       29.95F
LUFKIN         CLOUDY    69  68  96 SE8       29.94F
$$

SUPPLEMENTAL OBSERVATIONS (NWS FORT WORTH AREA)

CITY           SKY/WX    TMP DP  RH WIND       PRES   REMARKS
$$

SUPPLEMENTAL OBSERVATIONS (NWS NORMAN AREA)

CITY           SKY/WX    TMP DP  RH WIND       PRES   REMARKS
GOODLETT         N/A     67  58  73 S21       29.76S
ODELL            N/A     67  63  86 S16       29.79S
CROWELL          N/A     68  61  79 S12       29.80S
KNOX CITY        N/A     67  59  75 S17       29.80F
SEYMOUR          N/A     69  60  74 S13       29.81F
$$

SUPPLEMENTAL OBSERVATIONS (NWS SAN ANGELO AREA)

CITY           SKY/WX    TMP DP  RH WIND       PRES   REMARKS
WEINERT          N/A     67  61  79 S15       29.81F
HASKELL          N/A     67  59  75 S13       29.82F
THROCKMORTON     N/A     67  63  84 S13       29.84F
STAMFORD         N/A     69  62  79 S16       29.83F
CLYDE            N/A     66  62  86 S14       29.87F
$$

SUPPLEMENTAL OBSERVATIONS (NWS SHREVEPORT AREA)

CITY           SKY/WX    TMP DP  RH WIND       PRES   REMARKS
$$

SUPPLEMENTAL OBSERVATIONS ARE A COLLECTION OF AUTOMATED INSTRUMENTS
THAT ARE MAINTAINED BY A VARIETY OF FEDERAL AND STATE AGENCIES.
CERTAIN ELEMENTS...SUCH AS HUMIDITY VALUES AND SUSTAINED WIND
SPEEDS...MAY BE APPROXIMATED.





USA.gov is the U.S. government's official web portal to all federal, state and local government web resources and services.